Weather Roundup
Issued by NWS Chicago, IL

Home | Current Version | Previous Version | Graphics & Text | Print | Product List | Glossary On
Versions: 1 2 3 4 5 6 7 8 9 10 11 12 13 14 15 16 17 18 19 20 21 22 23 24 25 26 27 28 29 30 31 32 33 34 35 36 37 38 39 40 41 42 43 44 45 46 47 48 49 50
000
NZUS59 KLOT 251306
HRRLOT

CHICAGO AREA WEATHER ROUNDUP
NATIONAL WEATHER SERVICE CHICAGO/ROMEOVILLE IL
800 AM CDT SAT OCT 25 2014

NOTE: "FAIR" INDICATES FEW OR NO CLOUDS BELOW 12,000 FEET WITH NO
SIGNIFICANT WEATHER AND/OR OBSTRUCTIONS TO VISIBILITY.

* THESE STATIONS ARE NOT UNDER NWS QUALITY CONTROL. THEY ALSO MAY NOT
  REPORT WEATHER SUCH AS PRECIPITATION OR FOG.

ILZ005-006-012>014-019>023-251400-
NORTHEAST ILLINOIS

CITY           SKY/WX    TMP DP  RH WIND       PRES   REMARKS
OHARE          PTCLDY    55  53  93 W6        29.91R FOG
MIDWAY         PTCLDY    56  54  93 SW6       29.91S FOG
AURORA         CLEAR     49  48  97 W7        29.93S FOG
LANSING*       CLOUDY    55  54  94 W7        29.93S FOG
JOLIET*        MOCLDY    56  54  94 SW3       29.94S FOG
WAUKEGAN       CLEAR     55  53  93 W7        29.89R FOG
DUPAGE AIRPORT CLEAR     53  52  96 SW3       29.92S FOG
WHEELING       CLEAR     57  53  86 NW3       29.92S FOG
KANKAKEE*      CLOUDY    55  55  98 W8        29.96R FOG
MORRIS*        CLOUDY    57  56  99 W5        29.94R FOG
LEWIS AIRPORT* PTCLDY    55  55 100 W5        29.93S FOG
NORTHERLY IS     N/A     57  53  86 W10         N/A
$$

WIZ051-052-058>065-066-070>072-251400-
SOUTHEAST WISCONSIN

CITY           SKY/WX    TMP DP  RH WIND       PRES   REMARKS
MILWAUKEE      PTCLDY    57  51  80 W10       29.90R
KENOSHA*       CLEAR     55  53  93 W9        29.89R FOG
RACINE*        CLEAR     55  52  89 W9        29.90R FOG
BURLINGTON     CLEAR     53  51  92 W8        29.91R FOG
WAUKESHA       CLEAR     52  50  93 W9        29.91R FOG
WEST BEND      CLEAR     54  46  76 W9        29.88R
$$

INZ001>003-010>013-019-020-251400-
NORTHWEST INDIANA

CITY           SKY/WX    TMP DP  RH WIND       PRES   REMARKS
GARY*          MOCLDY    57  54  88 W6        29.93R FOG
MICHIGAN CITY* NOT AVBL
RENSSELAER*    NOT AVBL
VALPARAISO     CLOUDY    53  53 100 W8        29.94R FOG
$$

LMZ740>746-251400-
SOUTHERN LAKE MICHIGAN

STATION/POSITION TIME  SKY/WX   TEMP WIND        PRES    VSBY
                                AIR  DIR/SP/G
                 (UTC)          (F)  (DEG/KT/KT) (MB)    (MI)
HARRISON CRIB    1200            57  270/ 11/ 12   N/A
BURNHAM HARBOR   1300            57  260/  8/ 11   N/A
CALUMET HARBOR   1300            56  230/  4/  8 1011.9R
BURNS HARBOR     NOT AVBL
MICHIGAN CITY    1300            56  240/ 13/ 15   N/A
$$

ABBREVIATIONS USED IN REMARKS
   TC - TEMPERATURE IN CELSIUS
  WCI - WIND CHILL INDEX
   HX - HEAT INDEX
  VSB - VISIBILITY
$$



USA.gov is the U.S. government's official web portal to all federal, state and local government web resources and services.